| time (UTC) | temp F | wind direction | speed knots | gust knots | rain 1hr in | rain 24hr in | rain mn in | humidity % | barometer mb |
| 20260507002027 | 58 | 194 | 0.0 | 0.0 | 0.00 | 0.00 | 0.00 | 78 | 1007.3 |
| 20260507001021 | 59 | 215 | 0.0 | 0.0 | 0.00 | 0.00 | 0.00 | 77 | 1007.7 |
| 20260507000023 | 60 | 250 | 0.0 | 0.9 | 0.00 | 0.00 | 0.00 | 76 | 1007.1 |
| 20260506235051 | 60 | 197 | 2.6 | 7.8 | 0.00 | 0.00 | 0.00 | 75 | 1007.1 |
| 20260506234048 | 60 | 172 | 2.6 | 6.1 | 0.00 | 0.00 | 0.00 | 75 | 1007.4 |
| 20260506233022 | 60 | 151 | 0.9 | 3.5 | 0.00 | 0.00 | 0.00 | 75 | 1007.1 |
| 20260506232034 | 60 | 232 | 0.0 | 0.0 | 0.00 | 0.00 | 0.00 | 74 | 1007.1 |
| 20260506231023 | 61 | 176 | 0.0 | 2.6 | 0.00 | 0.00 | 0.00 | 73 | 1007.1 |
| 20260506230023 | 61 | 166 | 0.9 | 6.1 | 0.00 | 0.00 | 0.00 | 73 | 1007.4 |
| 20260506225047 | 61 | 194 | 0.0 | 0.9 | 0.00 | 0.00 | 0.00 | 73 | 1007.4 |
| 20260506224051 | 61 | 305 | 0.0 | 0.9 | 0.00 | 0.00 | 0.00 | 72 | 1007.1 |
| 20260506223050 | 61 | 277 | 0.9 | 2.6 | 0.00 | 0.00 | 0.00 | 72 | 1007.1 |
| 20260506222023 | 61 | 272 | 0.9 | 2.6 | 0.00 | 0.00 | 0.00 | 72 | 1007.1 |
| 20260506221021 | 62 | 245 | 0.9 | 2.6 | 0.00 | 0.00 | 0.00 | 71 | 1006.8 |
| 20260506220526 | 62 | 174 | 0.0 | 1.7 | 0.00 | 0.00 | 0.00 | 70 | 1006.4 |
| 20260506215026 | 62 | 182 | 0.9 | 7.8 | 0.00 | 0.00 | 0.00 | 69 | 1006.4 |
| 20260506214054 | 63 | 188 | 0.9 | 4.3 | 0.00 | 0.00 | 0.00 | 69 | 1006.4 |
| 20260506213054 | 63 | 164 | 0.9 | 6.1 | 0.00 | 0.00 | 0.00 | 68 | 1006.4 |
| 20260506212020 | 63 | 178 | 1.7 | 5.2 | 0.00 | 0.00 | 0.00 | 68 | 1006.4 |
| 20260506211025 | 63 | 170 | 1.7 | 7.8 | 0.00 | 0.00 | 0.00 | 67 | 1006.0 |
| 20260506210025 | 63 | 201 | 0.9 | 2.6 | 0.00 | 0.00 | 0.00 | 67 | 1006.0 |
| 20260506205034 | 64 | 175 | 0.9 | 2.6 | 0.00 | 0.00 | 0.00 | 66 | 1006.1 |
| 20260506204027 | 64 | 140 | 0.9 | 2.6 | 0.00 | 0.00 | 0.00 | 66 | 1006.4 |
| 20260506203027 | 64 | 158 | 1.7 | 2.6 | 0.00 | 0.00 | 0.00 | 65 | 1006.1 |
| 20260506202025 | 64 | 169 | 2.6 | 5.2 | 0.00 | 0.00 | 0.00 | 65 | 1006.0 |
| 20260506201047 | 65 | 167 | 2.6 | 7.0 | 0.00 | 0.00 | 0.00 | 64 | 1006.0 |
| 20260506200054 | 65 | 181 | 1.7 | 4.3 | 0.00 | 0.00 | 0.00 | 64 | 1006.1 |
| 20260506195029 | 65 | 175 | 0.9 | 3.5 | 0.00 | 0.00 | 0.00 | 63 | 1006.1 |
| 20260506194059 | 66 | 179 | 0.9 | 5.2 | 0.00 | 0.00 | 0.00 | 62 | 1006.1 |
| 20260506193049 | 66 | 174 | 1.7 | 6.1 | 0.00 | 0.00 | 0.00 | 61 | 1006.1 |
| 20260506192028 | 66 | 163 | 1.7 | 5.2 | 0.00 | 0.00 | 0.00 | 61 | 1006.1 |
| 20260506191028 | 66 | 183 | 0.0 | 1.7 | 0.00 | 0.00 | 0.00 | 61 | 1006.1 |
| 20260506190029 | 66 | 282 | 0.9 | 3.5 | 0.00 | 0.00 | 0.00 | 60 | 1005.6 |
| 20260506185021 | 66 | 179 | 0.0 | 4.3 | 0.00 | 0.00 | 0.00 | 60 | 1005.5 |
| 20260506184025 | 66 | 202 | 0.0 | 0.0 | 0.00 | 0.00 | 0.00 | 60 | 1005.5 |
| 20260506183023 | 67 | 214 | 0.0 | 0.9 | 0.00 | 0.00 | 0.00 | 59 | 1004.9 |
| 20260506182032 | 68 | 157 | 0.0 | 0.9 | 0.00 | 0.00 | 0.00 | 57 | 1004.9 |
| 20260506181058 | 69 | 122 | 0.9 | 4.3 | 0.00 | 0.00 | 0.00 | 56 | 1005.3 |
| 20260506180038 | 69 | 197 | 0.0 | 1.7 | 0.00 | 0.00 | 0.00 | 55 | 1004.8 |
| 20260506175029 | 70 | 190 | 0.9 | 4.3 | 0.00 | 0.00 | 0.00 | 54 | 1004.9 |
| 20260506174036 | 70 | 183 | 2.6 | 5.2 | 0.00 | 0.00 | 0.00 | 53 | 1005.2 |
| 20260506173051 | 71 | 223 | 1.7 | 5.2 | 0.00 | 0.00 | 0.00 | 53 | 1005.2 |
| 20260506172101 | 71 | 198 | 1.7 | 5.2 | 0.00 | 0.00 | 0.00 | 52 | 1005.3 |
| 20260506171101 | 71 | 170 | 2.6 | 8.7 | 0.00 | 0.00 | 0.00 | 53 | 1005.6 |
| 20260506170037 | 71 | 190 | 2.6 | 8.7 | 0.00 | 0.00 | 0.00 | 52 | 1005.4 |
| 20260506165025 | 71 | 163 | 1.7 | 5.2 | 0.00 | 0.00 | 0.00 | 52 | 1005.4 |
| 20260506164036 | 72 | 169 | 2.6 | 5.2 | 0.00 | 0.00 | 0.00 | 51 | 1005.4 |
| 20260506163053 | 72 | 154 | 2.6 | 5.2 | 0.00 | 0.00 | 0.00 | 51 | 1005.7 |
| 20260506162026 | 73 | 152 | 1.7 | 6.1 | 0.00 | 0.00 | 0.00 | 50 | 1005.7 |
| 20260506161023 | 73 | 145 | 2.6 | 5.2 | 0.00 | 0.00 | 0.00 | 49 | 1005.7 |
| 20260506160053 | 73 | 178 | 2.6 | 6.1 | 0.00 | 0.00 | 0.00 | 49 | 1005.7 |
| 20260506155044 | 74 | 198 | 2.6 | 7.0 | 0.00 | 0.00 | 0.00 | 49 | 1005.8 |
| 20260506154045 | 74 | 159 | 2.6 | 6.1 | 0.00 | 0.00 | 0.00 | 49 | 1006.1 |
| 20260506153030 | 75 | 163 | 1.7 | 6.1 | 0.00 | 0.00 | 0.00 | 48 | 1006.5 |
| 20260506152029 | 75 | 154 | 0.9 | 7.0 | 0.00 | 0.00 | 0.00 | 47 | 1006.5 |
| 20260506151031 | 75 | 182 | 0.9 | 3.5 | 0.00 | 0.00 | 0.00 | 50 | 1006.5 |
| 20260506150040 | 75 | 201 | 1.7 | 6.1 | 0.00 | 0.00 | 0.00 | 49 | 1006.5 |
| 20260506145044 | 74 | 162 | 2.6 | 5.2 | 0.00 | 0.00 | 0.00 | 50 | 1006.6 |
| 20260506144049 | 77 | 147 | 2.6 | 4.3 | 0.00 | 0.00 | 0.00 | 50 | 1006.6 |
| 20260506143036 | 76 | 136 | 2.6 | 8.7 | 0.00 | 0.00 | 0.00 | 50 | 1007.0 |
| 20260506142039 | 74 | 181 | 2.6 | 8.7 | 0.00 | 0.00 | 0.00 | 52 | 1006.9 |
| 20260506141043 | 75 | 167 | 3.5 | 6.1 | 0.00 | 0.00 | 0.00 | 52 | 1007.0 |
| 20260506140100 | 75 | 193 | 3.5 | 9.6 | 0.00 | 0.00 | 0.00 | 50 | 1007.3 |
| 20260506135042 | 76 | 156 | 2.6 | 6.1 | 0.00 | 0.00 | 0.00 | 51 | 1007.4 |
| 20260506134053 | 74 | 167 | 0.9 | 5.2 | 0.00 | 0.00 | 0.00 | 52 | 1007.3 |
| 20260506133059 | 75 | 199 | 1.7 | 5.2 | 0.00 | 0.00 | 0.00 | 52 | 1007.6 |
| 20260506132035 | 73 | 146 | 2.6 | 5.2 | 0.00 | 0.00 | 0.00 | 53 | 1007.6 |
| 20260506131031 | 73 | 141 | 2.6 | 4.3 | 0.00 | 0.00 | 0.00 | 54 | 1007.6 |
| 20260506130048 | 74 | 168 | 0.9 | 4.3 | 0.00 | 0.00 | 0.00 | 54 | 1008.0 |
| 20260506125044 | 74 | 172 | 1.7 | 7.0 | 0.00 | 0.00 | 0.00 | 52 | 1008.0 |
| 20260506124020 | 74 | 162 | 1.7 | 5.2 | 0.00 | 0.00 | 0.00 | 53 | 1008.0 |
| 20260506123111 | 75 | 170 | 1.7 | 3.5 | 0.00 | 0.00 | 0.00 | 52 | 1008.0 |
| 20260506122020 | 75 | 279 | 0.0 | 0.9 | 0.00 | 0.00 | 0.00 | 51 | 1008.0 |
| 20260506121022 | 74 | 166 | 1.7 | 4.3 | 0.00 | 0.00 | 0.00 | 51 | 1008.0 |
| 20260506120036 | 75 | 100 | 0.9 | 3.5 | 0.00 | 0.00 | 0.00 | 51 | 1008.1 |
| 20260506115041 | 76 | 130 | 0.9 | 4.3 | 0.00 | 0.00 | 0.00 | 49 | 1008.1 |
| 20260506114027 | 76 | 162 | 0.0 | 0.9 | 0.00 | 0.00 | 0.00 | 48 | 1008.1 |
| 20260506113025 | 74 | 188 | 1.7 | 6.1 | 0.00 | 0.00 | 0.00 | 49 | 1008.4 |
| 20260506112057 | 74 | 177 | 0.9 | 2.6 | 0.00 | 0.00 | 0.00 | 50 | 1008.4 |
| 20260506111029 | 75 | 196 | 0.0 | 0.9 | 0.00 | 0.00 | 0.00 | 51 | 1008.4 |
| 20260506110111 | 75 | 237 | 0.9 | 6.1 | 0.00 | 0.00 | 0.00 | 50 | 1008.8 |
| 20260506105040 | 75 | 134 | 0.9 | 1.7 | 0.00 | 0.00 | 0.00 | 51 | 1008.8 |
| 20260506104044 | 75 | 186 | 0.9 | 3.5 | 0.00 | 0.00 | 0.00 | 51 | 1008.8 |
| 20260506103058 | 74 | 240 | 0.9 | 4.3 | 0.00 | 0.00 | 0.00 | 53 | 1008.7 |
| 20260506102048 | 75 | 217 | 0.9 | 4.3 | 0.00 | 0.00 | 0.00 | 52 | 1008.8 |
| 20260506101032 | 74 | 242 | 0.0 | 1.7 | 0.00 | 0.00 | 0.00 | 52 | 1008.7 |
| 20260506100033 | 75 | 254 | 1.7 | 3.5 | 0.00 | 0.00 | 0.00 | 52 | 1009.1 |
| 20260506095023 | 77 | 227 | 0.9 | 2.6 | 0.00 | 0.00 | 0.00 | 50 | 1009.2 |
| 20260506094025 | 76 | 236 | 0.0 | 1.7 | 0.00 | 0.00 | 0.00 | 52 | 1009.1 |
| 20260506093021 | 74 | 235 | 0.9 | 5.2 | 0.00 | 0.00 | 0.00 | 54 | 1009.4 |
| 20260506092119 | 73 | 265 | 0.9 | 4.3 | 0.00 | 0.00 | 0.00 | 56 | 1009.4 |
| 20260506091040 | 73 | 263 | 1.7 | 6.1 | 0.00 | 0.00 | 0.00 | 56 | 1009.4 |
| 20260506090029 | 72 | 237 | 1.7 | 5.2 | 0.00 | 0.00 | 0.00 | 56 | 1009.4 |
| 20260506085053 | 73 | 266 | 2.6 | 5.2 | 0.00 | 0.00 | 0.00 | 57 | 1009.4 |
| 20260506084041 | 72 | 277 | 1.7 | 5.2 | 0.00 | 0.00 | 0.00 | 58 | 1009.4 |
| 20260506083024 | 72 | 231 | 1.7 | 7.0 | 0.00 | 0.00 | 0.00 | 57 | 1009.4 |
| 20260506082028 | 71 | 258 | 1.7 | 4.3 | 0.00 | 0.00 | 0.00 | 57 | 1009.4 |
| 20260506081031 | 68 | 273 | 1.7 | 4.3 | 0.00 | 0.00 | 0.00 | 62 | 1009.0 |
| 20260506073035 | 71 | 224 | 0.9 | 3.5 | 0.00 | 0.00 | 0.00 | 61 | 1009.1 |
| 20260506072034 | 67 | 260 | 0.9 | 2.6 | 0.00 | 0.00 | 0.00 | 65 | 1009.1 |
| 20260506071019 | 70 | 268 | 2.6 | 7.0 | 0.00 | 0.00 | 0.00 | 64 | 1009.5 |
| 20260506062043 | 63 | 264 | 0.9 | 2.6 | 0.00 | 0.00 | 0.00 | 73 | 1009.4 |
| 20260506061038 | 62 | 260 | 0.9 | 2.6 | 0.00 | 0.00 | 0.00 | 74 | 1009.4 |
| 20260506051102 | 59 | 253 | 0.0 | 1.7 | 0.00 | 0.00 | 0.00 | 76 | 1008.7 |
| 20260506045028 | 55 | 153 | 0.0 | 0.0 | 0.00 | 0.00 | 0.00 | 82 | 1008.7 |
| 20260506044029 | 53 | 243 | 0.0 | 0.9 | 0.00 | 0.00 | 0.00 | 85 | 1008.6 |
| 20260506043047 | 52 | 0.0 | 0.0 | 0.00 | 0.00 | 0.00 | 87 | 1008.5 | |
| 20260506042030 | 51 | 0.0 | 0.0 | 0.00 | 0.00 | 0.00 | 87 | 1008.6 | |
| 20260506041102 | 51 | 0.0 | 0.0 | 0.00 | 0.00 | 0.00 | 87 | 1007.9 | |
| 20260506040029 | 50 | 0.0 | 0.0 | 0.00 | 0.00 | 0.00 | 87 | 1007.9 | |
| 20260506035034 | 50 | 258 | 0.0 | 0.0 | 0.00 | 0.00 | 0.00 | 86 | 1007.9 |
| 20260506034039 | 51 | 0.0 | 0.0 | 0.00 | 0.00 | 0.00 | 85 | 1008.0 | |
| 20260506033021 | 51 | 0.0 | 0.0 | 0.00 | 0.00 | 0.00 | 85 | 1008.0 | |
| 20260506032025 | 52 | 0.0 | 0.0 | 0.00 | 0.00 | 0.00 | 84 | 1008.0 | |
| 20260506031020 | 52 | 0.0 | 0.0 | 0.00 | 0.00 | 0.00 | 83 | 1008.0 | |
| 20260506030026 | 52 | 0.0 | 0.0 | 0.00 | 0.00 | 0.00 | 82 | 1007.6 | |
| 20260506025036 | 53 | 0.0 | 0.0 | 0.00 | 0.00 | 0.00 | 81 | 1007.7 | |
| 20260506024026 | 54 | 0.0 | 0.0 | 0.00 | 0.00 | 0.00 | 80 | 1008.1 | |
| 20260506023025 | 54 | 0.0 | 0.0 | 0.00 | 0.00 | 0.00 | 79 | 1007.8 | |
| 20260506022023 | 55 | 0.0 | 0.0 | 0.00 | 0.00 | 0.00 | 79 | 1007.8 | |
| 20260506021047 | 55 | 252 | 0.0 | 1.7 | 0.00 | 0.00 | 0.00 | 79 | 1007.5 |
| 20260506020040 | 55 | 0.0 | 0.0 | 0.00 | 0.00 | 0.00 | 78 | 1007.8 | |
| 20260506015034 | 56 | 0.0 | 0.0 | 0.00 | 0.00 | 0.00 | 77 | 1007.8 | |
| 20260506014043 | 56 | 250 | 0.0 | 0.0 | 0.00 | 0.00 | 0.00 | 76 | 1007.5 |
| 20260506013044 | 56 | 252 | 0.0 | 0.9 | 0.00 | 0.00 | 0.00 | 76 | 1007.5 |
| 20260506012023 | 56 | 274 | 0.0 | 0.9 | 0.00 | 0.00 | 0.00 | 75 | 1007.4 |
| 20260506011020 | 56 | 244 | 0.0 | 3.5 | 0.00 | 0.00 | 0.00 | 75 | 1007.4 |
| 20260506010040 | 56 | 276 | 0.0 | 0.0 | 0.00 | 0.00 | 0.00 | 74 | 1007.1 |
| 20260506005027 | 57 | 0.0 | 0.0 | 0.00 | 0.00 | 0.00 | 73 | 1007.0 | |
| 20260506004028 | 57 | 0.0 | 0.0 | 0.00 | 0.00 | 0.00 | 72 | 1007.0 | |
| 20260506003034 | 57 | 254 | 0.0 | 0.0 | 0.00 | 0.00 | 0.00 | 72 | 1007.0 |